Date String (YYYY-MM-DD hh:mm:ss) UTC,Instrument flags,Ambient pressure (hPa),Sample flow (lpm),Bypass flow (lpm),Sample temperature (°C),Ambient temperature (°C),ASC tube jacket temperature (°C),LED temperature (°C),Box temperature (°C),Sample RH (%),Span deviation,Mass concentration (μg/m³),Mass concentration (μg/m³),Mass concentration (μg/m³)
DateTimeUTC,F1_M11,P_M11,Q1_M11,Q2_M11,T1_M11,T2_M11,T3_M11,T4_M11,T5_M11,U1_M11,ZSPAN_M11,X0_M11,X2_M11,X1_M11
2023-04-13 22:00:00,,0813.5,5.00,0.00,30.4,28.6,00.0,38.9,31.9,07.9,0000.0,0006.34,0003.14,0002.18
2023-04-13 22:01:00,,0813.6,5.00,0.00,30.4,28.7,00.0,38.9,32.0,08.3,0000.0,0006.81,0003.13,0002.16
2023-04-13 22:02:00,,0813.5,5.00,0.00,30.4,28.8,00.0,38.9,32.0,08.5,0000.0,0007.97,0003.17,0002.19
2023-04-13 22:03:00,,0813.6,5.00,0.00,30.5,28.9,00.0,38.9,32.0,08.6,0000.0,0008.82,0003.22,0002.21
2023-04-13 22:04:00,,0813.5,5.00,0.00,30.5,29.0,00.0,38.9,32.0,08.7,0000.0,0009.32,0003.28,0002.24
2023-04-13 22:05:00,,0813.5,4.99,0.00,30.5,29.1,00.0,38.9,32.0,08.5,0000.0,0009.87,0003.30,0002.25
2023-04-13 22:06:00,,0813.5,4.99,0.00,30.5,29.1,00.0,38.9,32.1,08.5,0000.0,0009.96,0003.32,0002.26
2023-04-13 22:07:00,,0813.6,4.99,0.00,30.5,29.2,00.0,38.9,32.1,08.4,0000.0,0010.24,0003.36,0002.26
2023-04-13 22:08:00,,0813.6,5.01,0.00,30.5,29.2,00.0,38.9,32.1,08.4,0000.0,0010.39,0003.38,0002.28
2023-04-13 22:09:00,,0813.6,5.01,0.00,30.6,29.3,00.0,38.9,32.1,08.3,0000.0,0010.40,0003.38,0002.29
2023-04-13 22:10:00,,0813.6,4.99,0.00,30.6,29.3,00.0,38.9,32.1,08.3,0000.0,0010.76,0003.37,0002.30
2023-04-13 22:11:00,,0813.6,5.01,0.00,30.6,29.4,00.0,38.9,32.2,08.3,0000.0,0010.86,0003.38,0002.31
2023-04-13 22:12:00,,0813.6,4.99,0.00,30.6,29.4,00.0,38.9,32.2,08.3,0000.0,0011.05,0003.39,0002.32
2023-04-13 22:13:00,,0813.6,4.98,0.00,30.6,28.2,00.0,38.9,32.0,08.3,0000.0,0010.68,0003.35,0002.31
2023-04-13 22:14:00,,0813.6,5.00,0.00,30.5,26.3,00.0,38.8,31.7,08.3,0000.0,0010.09,0003.36,0002.31
2023-04-13 22:15:00,,0813.6,5.03,0.00,30.5,25.8,00.0,38.7,31.6,08.3,0000.0,0009.85,0003.39,0002.30
2023-04-13 22:16:00,,0813.5,4.99,0.00,30.4,26.0,00.0,38.7,31.5,08.4,0000.0,0009.88,0003.40,0002.31
2023-04-13 22:17:00,,0813.5,5.00,0.00,30.3,26.4,00.0,38.7,31.4,08.0,0000.0,0009.84,0003.36,0002.29
2023-04-13 22:18:00,,0813.5,5.01,0.00,30.2,26.8,00.0,38.7,31.4,07.7,0000.0,0009.56,0003.28,0002.24
2023-04-13 22:19:00,,0813.6,4.99,0.00,30.2,27.1,00.0,38.7,31.5,07.6,0000.0,0009.28,0003.22,0002.19
2023-04-13 22:20:00,,0813.6,5.00,0.00,30.2,27.5,00.0,38.7,31.5,07.6,0000.0,0009.08,0003.14,0002.12
2023-04-13 22:21:00,,0813.6,5.00,0.00,30.2,27.7,00.0,38.6,31.6,07.7,0000.0,0008.72,0003.12,0002.06
2023-04-13 22:22:00,,0813.5,5.00,0.00,30.2,28.0,00.0,38.6,31.6,07.8,0000.0,0008.60,0003.10,0002.00
2023-04-13 22:23:00,,0813.5,5.01,0.00,30.2,28.1,00.0,38.6,31.6,08.1,0000.0,0008.37,0003.03,0001.94
2023-04-13 22:24:00,,0813.5,5.00,0.00,30.2,28.3,00.0,38.6,31.7,07.9,0000.0,0008.51,0002.93,0001.90
2023-04-13 22:25:00,,0813.5,5.00,0.00,30.2,28.4,00.0,38.6,31.8,07.8,0000.0,0009.09,0002.85,0001.84
2023-04-13 22:26:00,,0813.5,4.99,0.00,30.2,28.6,00.0,38.6,31.8,07.9,0000.0,0009.60,0002.67,0001.78
2023-04-13 22:27:00,,0813.5,5.00,0.00,30.2,28.6,00.0,38.6,31.8,07.9,0000.0,0008.87,0002.48,0001.71
2023-04-13 22:28:00,,0813.6,5.01,0.00,30.2,28.7,00.0,38.6,31.8,07.7,0000.0,0008.30,0002.45,0001.68
2023-04-13 22:29:00,,0813.5,5.00,0.00,30.3,28.8,00.0,38.6,31.9,07.7,0000.0,0008.17,0002.45,0001.66
2023-04-13 22:30:00,,0813.5,5.01,0.00,30.3,28.8,00.0,38.6,31.9,07.6,0000.0,0008.71,0002.52,0001.66
2023-04-13 22:31:00,,0813.4,5.00,0.00,30.3,28.9,00.0,38.6,31.9,07.8,0000.0,0008.90,0002.51,0001.64
2023-04-13 22:32:00,,0813.4,5.00,0.00,30.3,28.9,00.0,38.6,31.9,07.8,0000.0,0009.00,0002.50,0001.64
2023-04-13 22:33:00,,0813.4,5.00,0.00,30.3,28.9,00.0,38.7,31.9,07.7,0000.0,0008.93,0002.46,0001.65
2023-04-13 22:34:00,,0813.4,5.00,0.00,30.3,29.0,00.0,38.7,32.0,07.6,0000.0,0008.70,0002.40,0001.64
2023-04-13 22:35:00,,0813.4,5.00,0.00,30.4,29.0,00.0,38.7,32.0,07.7,0000.0,0007.86,0002.36,0001.63
2023-04-13 22:36:00,,0813.5,5.01,0.00,30.4,29.0,00.0,38.7,32.0,07.5,0000.0,0006.78,0002.34,0001.63
2023-04-13 22:37:00,,0813.4,5.00,0.00,30.4,29.0,00.0,38.7,32.0,07.5,0000.0,0005.29,0002.32,0001.63
2023-04-13 22:38:00,,0813.4,5.01,0.00,30.4,29.1,00.0,38.7,32.0,07.5,0000.0,0005.37,0002.34,0001.62
2023-04-13 22:39:00,,0813.4,5.01,0.00,30.4,29.1,00.0,38.7,32.0,07.5,0000.0,0005.84,0002.34,0001.61
2023-04-13 22:40:00,,0813.4,4.98,0.00,30.4,29.1,00.0,38.7,32.0,07.5,0000.0,0005.79,0002.35,0001.61
2023-04-13 22:41:00,,0813.3,4.99,0.00,30.5,29.1,00.0,38.7,32.0,07.4,0000.0,0004.90,0002.27,0001.62
2023-04-13 22:42:00,,0813.3,5.00,0.00,30.5,29.1,00.0,38.8,32.1,07.5,0000.0,0004.82,0002.30,0001.61
2023-04-13 22:43:00,,0813.4,5.00,0.00,30.5,29.1,00.0,38.8,32.1,07.4,0000.0,0004.72,0002.34,0001.59
2023-04-13 22:44:00,,0813.4,5.00,0.00,30.5,29.2,00.0,38.8,32.1,07.5,0000.0,0005.06,0002.36,0001.58
2023-04-13 22:45:00,,0813.4,4.99,0.00,30.5,29.2,00.0,38.8,32.1,07.3,0000.0,0006.00,0002.41,0001.58
2023-04-13 22:46:00,,0813.4,5.00,0.00,30.5,29.2,00.0,38.8,32.1,07.4,0000.0,0006.70,0002.44,0001.58
2023-04-13 22:47:00,,0813.4,5.00,0.00,30.5,29.2,00.0,38.8,32.1,07.4,0000.0,0006.80,0002.43,0001.58
2023-04-13 22:48:00,,0813.4,5.00,0.00,30.5,29.2,00.0,38.8,32.1,07.5,0000.0,0006.90,0002.42,0001.58
2023-04-13 22:49:00,,0813.3,5.00,0.00,30.6,29.2,00.0,38.9,32.1,07.5,0000.0,0007.14,0002.40,0001.58
2023-04-13 22:50:00,,0813.3,5.00,0.00,30.6,29.2,00.0,38.9,32.1,07.4,0000.0,0006.91,0002.41,0001.58
2023-04-13 22:51:00,,0813.4,5.00,0.00,30.6,29.2,00.0,38.9,32.1,07.3,0000.0,0007.10,0002.41,0001.57
2023-04-13 22:52:00,,0813.4,5.00,0.00,30.6,29.2,00.0,38.9,32.2,07.2,0000.0,0007.04,0002.43,0001.58
2023-04-13 22:53:00,,0813.4,5.00,0.00,30.6,29.2,00.0,38.9,32.2,07.3,0000.0,0007.04,0002.46,0001.58
2023-04-13 22:54:00,,0813.4,5.01,0.00,30.6,29.2,00.0,38.9,32.2,07.4,0000.0,0007.27,0002.45,0001.60
2023-04-13 22:55:00,,0813.4,4.98,0.00,30.6,28.2,00.0,38.9,32.1,07.4,0000.0,0006.99,0002.45,0001.61
2023-04-13 22:56:00,,0813.3,5.01,0.00,30.6,26.8,00.0,38.8,31.9,07.3,0000.0,0006.75,0002.46,0001.61
2023-04-13 22:57:00,,0813.3,5.01,0.00,30.5,26.6,00.0,38.7,31.8,07.3,0000.0,0007.04,0002.50,0001.61
2023-04-13 22:58:00,,0813.3,5.00,0.00,30.4,26.8,00.0,38.7,31.5,07.5,0000.0,0006.99,0002.51,0001.60
2023-04-13 22:59:00,,0813.3,4.98,0.00,30.3,27.0,00.0,38.7,31.5,07.4,0000.0,0007.21,0002.52,0001.60
